Weather in Irganay

Russia / Republic of Dagestan     42°38′22″N   46°55′55″E
temp.,
°C
wind,
m/s
gust,
m/s
humid.,
%
clouds,
%
prec.,
mm/h
press.,
hPa
HPBL,
m
16 may, sun
sun1600:00+15sw326972 0.0 101426
03:00+14ssw436766 0.0 101433
06:00+15ssw446631 0.0 101387
09:00+22sse23435 0.0 1011760
12:00+25e44330 0.0 10091652
15:00+24ese55381 0.0 1008880
18:00+21ese23540 0.0 100879
21:00+17ssw43560 0.0 100932
17 may, mon
mon1700:00+15ssw544116 0.0 100952
03:00+13sw54375 0.0 100950
06:00+15sw444799 0.0 100870
09:00+23ssw22325 0.0 1006519
12:00+27ne242635 0.0 10051835
15:00+26ene33383 0.0 1005922
18:00+23ene11545 0.0 100521
21:00+19ssw335098 0.0 100619
18 may, tue
tue1800:00+18ssw224799 0.0 100613
03:00+16wnw115599 0.0 100611
06:00+16wnw226969 0.0 1008117
09:00+18nne2268100 0.1 1009738
12:00+16ne3381100 4.7 1010427
15:00+15ne2288100 11.7 1011317
18:00+14w1190100 5.0 1012123
21:00+13wsw1186100 5.2 101311
19 may, wed
wed1900:00+12wsw118764 0.2 101311
03:00+11wsw22874 0.2 101312
06:00+13wsw22795 0.0 1014101
09:00+19nnw22570 0.0 1013900
12:00+20nne436238 0.4 10141162
15:00+19nne336398 0.9 1015988
18:00+17nnw126999 0.1 101788
21:00+16wsw1166100 0.1 101913
20 may, thu
thu2000:00+14sse116945 0.0 101911
03:00+12se227528 0.0 102013
06:00+14s33735 0.0 1020131
09:00+19ese345534 0.0 10171006
12:00+22e44485 0.0 10151206
15:00+23ene43512 0.0 1013813
18:00+19e22681 0.0 1014183
21:00+18ssw32720 0.0 101317